Main page
Satellite images Climate Cyclones Lightning AirportsFAQ Languages Contact Newsletter About
Weather : Europe Africa North America South America Asia Australia-Oceania Others

hat-yai-th, Langkawi, Langkawi International Airport

latitude: , longitude: Malaysia, elevation: 06-20N m


METAR: WMKL 201900Z 04003KT 340V090 9999 FEW024 BKN280 26/25 Q1010